| time (UTC) | temp F | wind direction | speed knots | gust knots | rain 1hr in | rain 24hr in | rain mn in | humidity % | barometer mb |
| 20260506200921 | 64 | 295 | 10.4 | 14.8 | 0.00 | 0.00 | 0.00 | 73 | 1020.2 |
| 20260506200447 | 64 | 280 | 8.7 | 13.9 | 0.00 | 0.00 | 0.00 | 72 | 1020.3 |
| 20260506195927 | 65 | 329 | 8.7 | 12.2 | 0.00 | 0.00 | 0.00 | 72 | 1020.3 |
| 20260506195433 | 65 | 273 | 8.7 | 13.9 | 0.00 | 0.00 | 0.00 | 72 | 1020.4 |
| 20260506194921 | 65 | 307 | 7.0 | 13.9 | 0.00 | 0.00 | 0.00 | 72 | 1020.4 |
| 20260506194426 | 64 | 273 | 7.8 | 13.0 | 0.00 | 0.00 | 0.00 | 72 | 1020.4 |
| 20260506193932 | 64 | 299 | 8.7 | 13.0 | 0.00 | 0.00 | 0.00 | 71 | 1020.5 |
| 20260506193440 | 65 | 280 | 6.1 | 13.0 | 0.00 | 0.00 | 0.00 | 72 | 1020.4 |
| 20260506192956 | 65 | 252 | 6.1 | 13.0 | 0.00 | 0.00 | 0.00 | 71 | 1020.4 |
| 20260506192436 | 65 | 297 | 6.1 | 11.3 | 0.00 | 0.00 | 0.00 | 72 | 1020.5 |
| 20260506191923 | 65 | 257 | 7.0 | 11.3 | 0.00 | 0.00 | 0.00 | 71 | 1020.6 |
| 20260506191429 | 64 | 254 | 4.3 | 10.4 | 0.00 | 0.00 | 0.00 | 72 | 1020.6 |
| 20260506190936 | 64 | 274 | 6.1 | 10.4 | 0.00 | 0.00 | 0.00 | 72 | 1020.6 |
| 20260506190443 | 64 | 275 | 7.0 | 10.4 | 0.00 | 0.00 | 0.00 | 71 | 1020.6 |
| 20260506185920 | 65 | 316 | 6.1 | 10.4 | 0.00 | 0.00 | 0.00 | 71 | 1020.6 |
| 20260506185426 | 65 | 134 | 4.3 | 8.7 | 0.00 | 0.00 | 0.00 | 72 | 1020.6 |
| 20260506184928 | 64 | 251 | 4.3 | 10.4 | 0.00 | 0.00 | 0.00 | 72 | 1020.6 |
| 20260506184436 | 64 | 302 | 6.1 | 10.4 | 0.00 | 0.00 | 0.00 | 73 | 1020.6 |
| 20260506183952 | 63 | 284 | 4.3 | 10.4 | 0.00 | 0.00 | 0.00 | 73 | 1020.7 |
| 20260506183438 | 64 | 280 | 5.2 | 10.4 | 0.00 | 0.00 | 0.00 | 73 | 1020.7 |
| 20260506182923 | 63 | 280 | 4.3 | 9.6 | 0.00 | 0.00 | 0.00 | 74 | 1020.6 |
| 20260506182448 | 63 | 246 | 3.5 | 7.8 | 0.00 | 0.00 | 0.00 | 74 | 1020.6 |
| 20260506181935 | 62 | 297 | 3.5 | 7.8 | 0.00 | 0.00 | 0.00 | 75 | 1020.6 |
| 20260506181437 | 62 | 212 | 3.5 | 7.8 | 0.00 | 0.00 | 0.00 | 75 | 1020.6 |
| 20260506180925 | 62 | 306 | 4.3 | 9.6 | 0.00 | 0.00 | 0.00 | 74 | 1020.7 |
| 20260506180434 | 62 | 270 | 5.2 | 9.6 | 0.00 | 0.00 | 0.00 | 74 | 1020.6 |
| 20260506175921 | 62 | 300 | 4.3 | 8.7 | 0.00 | 0.00 | 0.00 | 73 | 1020.6 |
| 20260506175426 | 63 | 301 | 4.3 | 8.7 | 0.00 | 0.00 | 0.00 | 73 | 1020.6 |
| 20260506174934 | 63 | 7 | 0.9 | 5.2 | 0.00 | 0.00 | 0.00 | 74 | 1020.6 |
| 20260506174420 | 62 | 256 | 2.6 | 6.1 | 0.00 | 0.00 | 0.00 | 73 | 1020.6 |
| 20260506173926 | 62 | 341 | 1.7 | 6.1 | 0.00 | 0.00 | 0.00 | 74 | 1020.6 |
| 20260506173430 | 62 | 345 | 4.3 | 7.0 | 0.00 | 0.00 | 0.00 | 74 | 1020.6 |
| 20260506172936 | 62 | 194 | 2.6 | 7.8 | 0.00 | 0.00 | 0.00 | 74 | 1020.6 |
| 20260506172422 | 62 | 282 | 3.5 | 7.8 | 0.00 | 0.00 | 0.00 | 74 | 1020.7 |
| 20260506171928 | 61 | 262 | 2.6 | 6.1 | 0.00 | 0.00 | 0.00 | 75 | 1020.7 |
| 20260506171431 | 61 | 275 | 2.6 | 7.0 | 0.00 | 0.00 | 0.00 | 74 | 1020.7 |
| 20260506170919 | 62 | 316 | 4.3 | 7.0 | 0.00 | 0.00 | 0.00 | 74 | 1020.8 |
| 20260506170425 | 62 | 192 | 1.7 | 6.1 | 0.00 | 0.00 | 0.00 | 74 | 1020.7 |
| 20260506165946 | 61 | 40 | 3.5 | 6.1 | 0.00 | 0.00 | 0.00 | 74 | 1020.8 |
| 20260506165501 | 61 | 62 | 4.3 | 6.1 | 0.00 | 0.00 | 0.00 | 75 | 1020.7 |
| 20260506164955 | 61 | 88 | 1.7 | 7.0 | 0.00 | 0.00 | 0.00 | 75 | 1020.7 |
| 20260506164440 | 61 | 69 | 3.5 | 7.0 | 0.00 | 0.00 | 0.00 | 74 | 1020.7 |
| 20260506163955 | 61 | 320 | 3.5 | 8.7 | 0.00 | 0.00 | 0.00 | 74 | 1020.7 |
| 20260506163420 | 62 | 351 | 4.3 | 8.7 | 0.00 | 0.00 | 0.00 | 73 | 1020.6 |
| 20260506162940 | 62 | 219 | 0.9 | 5.2 | 0.00 | 0.00 | 0.00 | 74 | 1020.7 |
| 20260506162445 | 62 | 306 | 3.5 | 5.2 | 0.00 | 0.00 | 0.00 | 74 | 1020.7 |
| 20260506161930 | 61 | 167 | 1.7 | 7.0 | 0.00 | 0.00 | 0.00 | 75 | 1020.6 |
| 20260506161435 | 61 | 196 | 1.7 | 7.0 | 0.00 | 0.00 | 0.00 | 75 | 1020.8 |
| 20260506160921 | 60 | 275 | 2.6 | 4.3 | 0.00 | 0.00 | 0.00 | 75 | 1020.7 |
| 20260506160426 | 60 | 309 | 2.6 | 4.3 | 0.00 | 0.00 | 0.00 | 76 | 1020.7 |
| 20260506155926 | 60 | 279 | 2.6 | 6.1 | 0.00 | 0.00 | 0.00 | 76 | 1020.7 |
| 20260506155432 | 60 | 325 | 2.6 | 6.1 | 0.00 | 0.00 | 0.00 | 76 | 1020.7 |
| 20260506154938 | 59 | 289 | 2.6 | 4.3 | 0.00 | 0.00 | 0.00 | 76 | 1020.7 |
| 20260506154423 | 59 | 301 | 1.7 | 5.2 | 0.00 | 0.00 | 0.00 | 76 | 1020.8 |
| 20260506153951 | 60 | 314 | 2.6 | 5.2 | 0.00 | 0.00 | 0.00 | 77 | 1020.7 |
| 20260506153436 | 60 | 286 | 2.6 | 4.3 | 0.00 | 0.00 | 0.00 | 77 | 1020.7 |
| 20260506152941 | 59 | 261 | 2.6 | 4.3 | 0.00 | 0.00 | 0.00 | 77 | 1020.6 |
| 20260506152422 | 59 | 295 | 1.7 | 5.2 | 0.00 | 0.00 | 0.00 | 77 | 1020.7 |
| 20260506151930 | 59 | 323 | 2.6 | 6.1 | 0.00 | 0.00 | 0.00 | 77 | 1020.7 |
| 20260506151437 | 59 | 328 | 3.5 | 6.1 | 0.00 | 0.00 | 0.00 | 78 | 1020.6 |
| 20260506150925 | 59 | 313 | 1.7 | 3.5 | 0.00 | 0.00 | 0.00 | 79 | 1020.6 |
| 20260506150458 | 58 | 177 | 1.7 | 4.3 | 0.00 | 0.00 | 0.00 | 79 | 1020.6 |
| 20260506145942 | 58 | 222 | 0.9 | 6.1 | 0.00 | 0.00 | 0.00 | 79 | 1020.6 |
| 20260506145424 | 58 | 271 | 3.5 | 7.0 | 0.00 | 0.00 | 0.00 | 79 | 1020.6 |
| 20260506144930 | 58 | 302 | 3.5 | 7.0 | 0.00 | 0.00 | 0.00 | 80 | 1020.5 |
| 20260506144435 | 57 | 313 | 1.7 | 6.1 | 0.00 | 0.00 | 0.00 | 80 | 1020.4 |
| 20260506143919 | 57 | 276 | 3.5 | 6.1 | 0.00 | 0.00 | 0.00 | 80 | 1020.5 |
| 20260506143425 | 57 | 261 | 3.5 | 6.1 | 0.00 | 0.00 | 0.00 | 80 | 1020.4 |
| 20260506142932 | 57 | 313 | 2.6 | 7.0 | 0.00 | 0.00 | 0.00 | 80 | 1020.3 |
| 20260506142419 | 57 | 295 | 3.5 | 7.0 | 0.00 | 0.00 | 0.00 | 80 | 1020.3 |
| 20260506141934 | 57 | 34 | 1.7 | 4.3 | 0.00 | 0.00 | 0.00 | 80 | 1020.3 |
| 20260506141420 | 57 | 309 | 2.6 | 3.5 | 0.00 | 0.00 | 0.00 | 80 | 1020.2 |
| 20260506140945 | 57 | 282 | 1.7 | 3.5 | 0.00 | 0.00 | 0.00 | 80 | 1020.2 |
| 20260506140429 | 57 | 235 | 2.6 | 5.2 | 0.00 | 0.00 | 0.00 | 80 | 1020.2 |
| 20260506135935 | 56 | 259 | 2.6 | 5.2 | 0.00 | 0.00 | 0.00 | 80 | 1020.1 |
| 20260506135422 | 56 | 289 | 2.6 | 4.3 | 0.00 | 0.00 | 0.00 | 81 | 1020.0 |
| 20260506134946 | 56 | 222 | 1.7 | 3.5 | 0.00 | 0.00 | 0.00 | 81 | 1020.0 |
| 20260506134433 | 56 | 185 | 0.9 | 3.5 | 0.00 | 0.00 | 0.00 | 81 | 1020.0 |
| 20260506133919 | 56 | 313 | 1.7 | 5.2 | 0.00 | 0.00 | 0.00 | 81 | 1019.9 |
| 20260506133426 | 56 | 295 | 2.6 | 5.2 | 0.00 | 0.00 | 0.00 | 81 | 1020.0 |
| 20260506132934 | 56 | 285 | 3.5 | 6.1 | 0.00 | 0.00 | 0.00 | 81 | 1019.9 |
| 20260506132420 | 56 | 247 | 2.6 | 6.1 | 0.00 | 0.00 | 0.00 | 81 | 1019.9 |
| 20260506131927 | 56 | 289 | 2.6 | 5.2 | 0.00 | 0.00 | 0.00 | 81 | 1019.9 |
| 20260506131435 | 56 | 290 | 2.6 | 5.2 | 0.00 | 0.00 | 0.00 | 81 | 1019.8 |
| 20260506130920 | 56 | 299 | 2.6 | 6.1 | 0.00 | 0.00 | 0.00 | 81 | 1019.7 |
| 20260506130422 | 56 | 258 | 1.7 | 6.1 | 0.00 | 0.00 | 0.00 | 82 | 1019.7 |
| 20260506125948 | 56 | 249 | 1.7 | 6.1 | 0.00 | 0.00 | 0.00 | 82 | 1019.8 |
| 20260506125434 | 56 | 268 | 3.5 | 6.1 | 0.00 | 0.00 | 0.00 | 82 | 1019.7 |
| 20260506124924 | 56 | 251 | 2.6 | 5.2 | 0.00 | 0.00 | 0.00 | 82 | 1019.7 |
| 20260506124430 | 56 | 292 | 1.7 | 4.3 | 0.00 | 0.00 | 0.00 | 81 | 1019.6 |
| 20260506123918 | 56 | 282 | 2.6 | 5.2 | 0.00 | 0.00 | 0.00 | 81 | 1019.5 |
| 20260506123421 | 56 | 256 | 1.7 | 7.0 | 0.00 | 0.00 | 0.00 | 81 | 1019.5 |
| 20260506122948 | 56 | 276 | 2.6 | 4.3 | 0.00 | 0.00 | 0.00 | 81 | 1019.5 |
| 20260506122436 | 56 | 301 | 1.7 | 3.5 | 0.00 | 0.00 | 0.00 | 81 | 1019.5 |
| 20260506121923 | 56 | 334 | 1.7 | 6.1 | 0.00 | 0.00 | 0.00 | 81 | 1019.4 |
| 20260506121459 | 56 | 160 | 1.7 | 6.1 | 0.00 | 0.00 | 0.00 | 81 | 1019.5 |
| 20260506120925 | 56 | 302 | 1.7 | 7.0 | 0.00 | 0.00 | 0.00 | 80 | 1019.5 |
| 20260506120433 | 56 | 288 | 4.3 | 7.0 | 0.00 | 0.00 | 0.00 | 80 | 1019.5 |
| 20260506115936 | 56 | 297 | 2.6 | 4.3 | 0.00 | 0.00 | 0.00 | 80 | 1019.4 |
| 20260506115422 | 56 | 330 | 1.7 | 3.5 | 0.00 | 0.00 | 0.00 | 80 | 1019.4 |
| 20260506114957 | 56 | 320 | 1.7 | 6.1 | 0.00 | 0.00 | 0.00 | 80 | 1019.4 |
| 20260506114445 | 56 | 261 | 1.7 | 6.1 | 0.00 | 0.00 | 0.00 | 80 | 1019.5 |
| 20260506113926 | 56 | 302 | 2.6 | 6.1 | 0.00 | 0.00 | 0.00 | 80 | 1019.4 |
| 20260506113435 | 56 | 190 | 2.6 | 6.1 | 0.00 | 0.00 | 0.00 | 80 | 1019.3 |
| 20260506112922 | 56 | 230 | 2.6 | 6.1 | 0.00 | 0.00 | 0.00 | 80 | 1019.3 |
| 20260506112425 | 56 | 313 | 3.5 | 6.1 | 0.00 | 0.00 | 0.00 | 81 | 1019.2 |
| 20260506111932 | 56 | 251 | 3.5 | 6.1 | 0.00 | 0.00 | 0.00 | 81 | 1019.3 |
| 20260506111419 | 56 | 293 | 4.3 | 7.0 | 0.00 | 0.00 | 0.00 | 81 | 1019.2 |
| 20260506110925 | 56 | 280 | 4.3 | 7.8 | 0.00 | 0.00 | 0.00 | 81 | 1019.2 |
| 20260506110429 | 56 | 275 | 4.3 | 7.8 | 0.00 | 0.00 | 0.00 | 82 | 1019.1 |
| 20260506105936 | 56 | 277 | 5.2 | 7.8 | 0.00 | 0.00 | 0.00 | 83 | 1019.1 |
| 20260506105424 | 56 | 303 | 4.3 | 7.8 | 0.00 | 0.00 | 0.00 | 83 | 1019.1 |
| 20260506104932 | 56 | 273 | 4.3 | 7.8 | 0.00 | 0.00 | 0.00 | 83 | 1019.1 |
| 20260506104436 | 56 | 294 | 4.3 | 7.8 | 0.00 | 0.00 | 0.00 | 83 | 1019.1 |
| 20260506103951 | 56 | 277 | 3.5 | 8.7 | 0.00 | 0.00 | 0.00 | 83 | 1019.0 |
| 20260506103441 | 56 | 261 | 4.3 | 8.7 | 0.00 | 0.00 | 0.00 | 83 | 1019.0 |
| 20260506102945 | 56 | 295 | 2.6 | 9.6 | 0.00 | 0.00 | 0.00 | 83 | 1019.0 |
| 20260506102433 | 56 | 276 | 5.2 | 9.6 | 0.00 | 0.00 | 0.00 | 83 | 1019.0 |
| 20260506101921 | 56 | 308 | 4.3 | 7.8 | 0.00 | 0.00 | 0.00 | 83 | 1019.0 |
| 20260506101445 | 56 | 270 | 5.2 | 7.8 | 0.00 | 0.00 | 0.00 | 83 | 1018.8 |
| 20260506100932 | 56 | 288 | 1.7 | 7.8 | 0.00 | 0.00 | 0.00 | 83 | 1018.9 |
| 20260506100419 | 56 | 287 | 3.5 | 7.0 | 0.00 | 0.00 | 0.00 | 83 | 1018.9 |
| 20260506095924 | 56 | 314 | 3.5 | 7.8 | 0.00 | 0.01 | 0.00 | 82 | 1018.9 |
| 20260506095435 | 56 | 299 | 4.3 | 7.8 | 0.00 | 0.01 | 0.00 | 82 | 1018.9 |
| 20260506094922 | 56 | 297 | 3.5 | 7.0 | 0.00 | 0.01 | 0.00 | 82 | 1019.0 |
| 20260506094430 | 56 | 280 | 4.3 | 7.0 | 0.00 | 0.01 | 0.00 | 82 | 1019.0 |
| 20260506093928 | 56 | 287 | 5.2 | 7.0 | 0.00 | 0.01 | 0.00 | 82 | 1019.0 |
| 20260506093437 | 56 | 280 | 1.7 | 6.1 | 0.00 | 0.01 | 0.00 | 81 | 1019.0 |
| 20260506092941 | 56 | 280 | 3.5 | 6.1 | 0.00 | 0.01 | 0.00 | 81 | 1019.0 |
| 20260506092428 | 56 | 317 | 1.7 | 8.7 | 0.00 | 0.01 | 0.00 | 81 | 1018.9 |
| 20260506091935 | 56 | 282 | 2.6 | 8.7 | 0.00 | 0.01 | 0.00 | 81 | 1018.9 |
| 20260506091422 | 56 | 315 | 2.6 | 7.8 | 0.00 | 0.01 | 0.00 | 81 | 1018.8 |
| 20260506090929 | 56 | 273 | 3.5 | 7.0 | 0.00 | 0.01 | 0.00 | 81 | 1018.7 |
| 20260506090501 | 56 | 203 | 3.5 | 7.0 | 0.00 | 0.01 | 0.00 | 81 | 1018.7 |
| 20260506085956 | 56 | 256 | 3.5 | 6.1 | 0.00 | 0.03 | 0.00 | 81 | 1018.8 |
| 20260506085451 | 56 | 285 | 5.2 | 6.1 | 0.00 | 0.03 | 0.00 | 81 | 1018.9 |
| 20260506084939 | 56 | 282 | 1.7 | 7.0 | 0.00 | 0.03 | 0.00 | 81 | 1018.8 |
| 20260506084455 | 56 | 301 | 2.6 | 7.0 | 0.00 | 0.03 | 0.00 | 81 | 1018.9 |
| 20260506083923 | 56 | 300 | 3.5 | 7.0 | 0.00 | 0.03 | 0.00 | 81 | 1018.9 |
| 20260506083443 | 56 | 318 | 3.5 | 5.2 | 0.00 | 0.03 | 0.00 | 81 | 1018.9 |
| 20260506082928 | 56 | 299 | 1.7 | 8.7 | 0.00 | 0.03 | 0.00 | 81 | 1019.0 |
| 20260506082434 | 56 | 313 | 3.5 | 8.7 | 0.00 | 0.03 | 0.00 | 80 | 1019.0 |
| 20260506081920 | 57 | 273 | 3.5 | 7.8 | 0.00 | 0.03 | 0.00 | 80 | 1019.1 |
| 20260506081427 | 56 | 286 | 2.6 | 7.0 | 0.00 | 0.03 | 0.00 | 80 | 1019.0 |
| 20260506080934 | 56 | 294 | 4.3 | 8.7 | 0.00 | 0.03 | 0.00 | 80 | 1019.0 |
| 20260506080440 | 56 | 277 | 4.3 | 8.7 | 0.00 | 0.03 | 0.00 | 80 | 1019.1 |
| 20260506073419 | 56 | 290 | 6.1 | 9.6 | 0.00 | 0.06 | 0.00 | 81 | 1018.8 |
| 20260506072944 | 56 | 261 | 3.5 | 9.6 | 0.00 | 0.06 | 0.00 | 81 | 1018.9 |
| 20260506072427 | 56 | 278 | 6.1 | 10.4 | 0.00 | 0.06 | 0.00 | 81 | 1018.7 |
| 20260506071933 | 56 | 280 | 5.2 | 10.4 | 0.00 | 0.06 | 0.00 | 82 | 1018.8 |
| 20260506071418 | 56 | 260 | 4.3 | 9.6 | 0.00 | 0.06 | 0.00 | 82 | 1018.6 |
| 20260506070946 | 56 | 239 | 5.2 | 10.4 | 0.00 | 0.06 | 0.00 | 82 | 1018.7 |
| 20260506070433 | 56 | 283 | 3.5 | 10.4 | 0.00 | 0.06 | 0.00 | 83 | 1018.7 |
| 20260506062430 | 57 | 306 | 5.2 | 7.8 | 0.00 | 0.07 | 0.06 | 83 | 1018.3 |
| 20260506061933 | 57 | 314 | 3.5 | 9.6 | 0.00 | 0.07 | 0.06 | 82 | 1018.3 |
| 20260506061420 | 57 | 283 | 5.2 | 9.6 | 0.00 | 0.07 | 0.06 | 82 | 1018.2 |
| 20260506060928 | 57 | 302 | 5.2 | 10.4 | 0.00 | 0.07 | 0.06 | 82 | 1018.2 |
| 20260506060436 | 57 | 282 | 3.5 | 10.4 | 0.00 | 0.07 | 0.06 | 82 | 1018.2 |
| 20260506050919 | 57 | 276 | 5.2 | 9.6 | 0.00 | 0.09 | 0.06 | 83 | 1018.0 |
| 20260506050429 | 57 | 261 | 4.3 | 8.7 | 0.00 | 0.09 | 0.06 | 83 | 1018.0 |
| 20260506044940 | 57 | 301 | 5.2 | 8.7 | 0.00 | 0.10 | 0.06 | 83 | 1017.8 |
| 20260506044448 | 57 | 296 | 5.2 | 10.4 | 0.00 | 0.10 | 0.06 | 83 | 1017.8 |
| 20260506043935 | 57 | 294 | 4.3 | 8.7 | 0.00 | 0.10 | 0.06 | 83 | 1017.9 |
| 20260506043422 | 57 | 264 | 5.2 | 8.7 | 0.00 | 0.10 | 0.06 | 83 | 1017.8 |
| 20260506042927 | 57 | 268 | 4.3 | 8.7 | 0.00 | 0.10 | 0.06 | 82 | 1017.7 |
| 20260506042435 | 57 | 299 | 4.3 | 11.3 | 0.00 | 0.10 | 0.06 | 82 | 1017.8 |
| 20260506041933 | 57 | 264 | 2.6 | 7.8 | 0.00 | 0.10 | 0.06 | 82 | 1017.5 |
| 20260506041420 | 57 | 222 | 4.3 | 7.8 | 0.00 | 0.10 | 0.06 | 82 | 1017.5 |
| 20260506040942 | 57 | 268 | 5.2 | 7.8 | 0.00 | 0.10 | 0.06 | 82 | 1017.4 |
| 20260506040428 | 57 | 295 | 3.5 | 7.0 | 0.00 | 0.10 | 0.06 | 81 | 1017.4 |
| 20260506035931 | 57 | 268 | 3.5 | 8.7 | 0.00 | 0.10 | 0.06 | 81 | 1017.2 |
| 20260506035434 | 57 | 230 | 5.2 | 8.7 | 0.00 | 0.10 | 0.06 | 81 | 1017.2 |
| 20260506034941 | 57 | 234 | 5.2 | 10.4 | 0.00 | 0.10 | 0.06 | 80 | 1017.1 |
| 20260506034423 | 57 | 270 | 4.3 | 11.3 | 0.00 | 0.10 | 0.06 | 80 | 1016.9 |
| 20260506033930 | 57 | 274 | 5.2 | 11.3 | 0.00 | 0.10 | 0.06 | 80 | 1016.9 |
| 20260506033437 | 57 | 212 | 5.2 | 10.4 | 0.00 | 0.10 | 0.06 | 80 | 1016.8 |
| 20260506032924 | 57 | 251 | 4.3 | 10.4 | 0.00 | 0.10 | 0.06 | 79 | 1016.8 |
| 20260506032430 | 57 | 251 | 5.2 | 10.4 | 0.00 | 0.10 | 0.06 | 79 | 1016.7 |
| 20260506031933 | 58 | 282 | 4.3 | 9.6 | 0.00 | 0.10 | 0.06 | 79 | 1016.7 |
| 20260506031437 | 58 | 240 | 4.3 | 9.6 | 0.00 | 0.10 | 0.06 | 79 | 1016.6 |
| 20260506030924 | 58 | 271 | 4.3 | 10.4 | 0.00 | 0.10 | 0.06 | 78 | 1016.5 |
| 20260506030429 | 58 | 359 | 5.2 | 10.4 | 0.00 | 0.10 | 0.06 | 79 | 1016.4 |
| 20260506025932 | 58 | 237 | 5.2 | 10.4 | 0.00 | 0.10 | 0.06 | 79 | 1016.3 |
| 20260506025418 | 58 | 222 | 5.2 | 10.4 | 0.00 | 0.10 | 0.06 | 79 | 1016.2 |
| 20260506024925 | 58 | 292 | 5.2 | 9.6 | 0.00 | 0.10 | 0.06 | 78 | 1016.2 |
| 20260506024429 | 58 | 239 | 5.2 | 9.6 | 0.00 | 0.10 | 0.06 | 78 | 1016.2 |
| 20260506023937 | 58 | 252 | 5.2 | 10.4 | 0.00 | 0.10 | 0.06 | 79 | 1016.2 |
| 20260506023422 | 58 | 258 | 7.0 | 13.9 | 0.00 | 0.10 | 0.06 | 78 | 1016.2 |
| 20260506022929 | 58 | 251 | 7.0 | 13.9 | 0.00 | 0.10 | 0.06 | 78 | 1016.2 |
| 20260506022437 | 58 | 274 | 7.8 | 12.2 | 0.00 | 0.10 | 0.06 | 78 | 1016.1 |
| 20260506021925 | 58 | 249 | 7.0 | 12.2 | 0.00 | 0.10 | 0.06 | 77 | 1016.0 |
| 20260506021432 | 58 | 257 | 7.0 | 17.4 | 0.00 | 0.10 | 0.06 | 77 | 1016.0 |
| 20260506020940 | 58 | 235 | 9.6 | 17.4 | 0.00 | 0.10 | 0.06 | 77 | 1015.9 |
| 20260506020421 | 59 | 260 | 7.0 | 15.6 | 0.00 | 0.10 | 0.06 | 77 | 1015.9 |
| 20260506015928 | 58 | 274 | 8.7 | 15.6 | 0.00 | 0.10 | 0.06 | 77 | 1015.9 |
| 20260506015434 | 59 | 251 | 8.7 | 14.8 | 0.00 | 0.10 | 0.06 | 76 | 1015.9 |
| 20260506014921 | 59 | 259 | 9.6 | 14.8 | 0.00 | 0.10 | 0.06 | 76 | 1015.9 |
| 20260506014429 | 59 | 281 | 7.8 | 14.8 | 0.00 | 0.10 | 0.06 | 75 | 1016.0 |
| 20260506013935 | 59 | 270 | 7.0 | 15.6 | 0.00 | 0.10 | 0.06 | 75 | 1016.0 |
| 20260506013419 | 60 | 251 | 7.8 | 13.9 | 0.00 | 0.10 | 0.06 | 74 | 1016.0 |
| 20260506012922 | 60 | 276 | 5.2 | 13.9 | 0.00 | 0.10 | 0.06 | 74 | 1016.1 |
| 20260506012431 | 60 | 275 | 6.1 | 13.0 | 0.00 | 0.10 | 0.06 | 74 | 1016.1 |
| 20260506011937 | 60 | 177 | 7.0 | 13.0 | 0.00 | 0.10 | 0.06 | 73 | 1016.1 |
| 20260506011423 | 60 | 277 | 7.8 | 12.2 | 0.00 | 0.10 | 0.06 | 73 | 1016.0 |
| 20260506010928 | 61 | 287 | 8.7 | 15.6 | 0.00 | 0.10 | 0.06 | 74 | 1016.0 |
| 20260506010436 | 60 | 263 | 7.8 | 15.6 | 0.00 | 0.10 | 0.06 | 73 | 1015.9 |
| 20260506005920 | 61 | 251 | 8.7 | 15.6 | 0.00 | 0.10 | 0.06 | 72 | 1016.0 |
| 20260506005428 | 61 | 27 | 7.8 | 15.6 | 0.00 | 0.10 | 0.06 | 71 | 1015.9 |
| 20260506004931 | 61 | 225 | 7.0 | 13.0 | 0.00 | 0.10 | 0.06 | 71 | 1015.9 |
| 20260506004434 | 61 | 285 | 5.2 | 13.0 | 0.00 | 0.10 | 0.06 | 73 | 1015.7 |
| 20260506003919 | 61 | 293 | 7.0 | 13.9 | 0.00 | 0.10 | 0.06 | 73 | 1015.7 |
| 20260506003426 | 61 | 213 | 8.7 | 17.4 | 0.00 | 0.10 | 0.06 | 72 | 1015.6 |
| 20260506002933 | 61 | 286 | 7.8 | 17.4 | 0.00 | 0.10 | 0.06 | 73 | 1015.6 |
| 20260506002438 | 61 | 277 | 9.6 | 17.4 | 0.00 | 0.10 | 0.06 | 72 | 1015.5 |
| 20260506001924 | 61 | 278 | 8.7 | 15.6 | 0.00 | 0.10 | 0.06 | 72 | 1015.5 |
| 20260506001425 | 61 | 261 | 8.7 | 15.6 | 0.00 | 0.10 | 0.06 | 72 | 1015.4 |
| 20260506000933 | 61 | 256 | 7.0 | 15.6 | 0.00 | 0.10 | 0.06 | 73 | 1015.4 |
| 20260506000420 | 61 | 277 | 7.8 | 15.6 | 0.00 | 0.10 | 0.06 | 74 | 1015.3 |
| 20260505235925 | 60 | 228 | 8.7 | 13.9 | 0.00 | 0.10 | 0.06 | 74 | 1015.3 |
| 20260505235432 | 60 | 270 | 7.8 | 14.8 | 0.00 | 0.10 | 0.06 | 75 | 1015.4 |
| 20260505234922 | 60 | 268 | 9.6 | 16.5 | 0.00 | 0.10 | 0.06 | 75 | 1015.4 |
| 20260505234427 | 60 | 268 | 9.6 | 15.6 | 0.00 | 0.10 | 0.06 | 74 | 1015.3 |
| 20260505233930 | 60 | 268 | 9.6 | 17.4 | 0.00 | 0.10 | 0.06 | 74 | 1015.4 |
| 20260505233437 | 60 | 277 | 8.7 | 17.4 | 0.00 | 0.10 | 0.06 | 74 | 1015.5 |
| 20260505232954 | 60 | 263 | 9.6 | 16.5 | 0.00 | 0.10 | 0.06 | 73 | 1015.5 |
| 20260505232421 | 61 | 257 | 10.4 | 17.4 | 0.00 | 0.10 | 0.06 | 74 | 1015.5 |
| 20260505231928 | 61 | 283 | 8.7 | 18.2 | 0.00 | 0.10 | 0.06 | 73 | 1015.4 |
| 20260505231435 | 61 | 314 | 7.8 | 17.4 | 0.00 | 0.10 | 0.06 | 73 | 1015.4 |
| 20260505230941 | 61 | 256 | 10.4 | 16.5 | 0.00 | 0.10 | 0.06 | 73 | 1015.3 |
| 20260505230443 | 61 | 242 | 9.6 | 18.2 | 0.00 | 0.10 | 0.06 | 73 | 1015.2 |
| 20260505225928 | 62 | 237 | 7.0 | 18.2 | 0.00 | 0.10 | 0.06 | 73 | 1015.3 |
| 20260505225433 | 61 | 268 | 10.4 | 19.1 | 0.00 | 0.10 | 0.06 | 71 | 1015.2 |
| 20260505224918 | 62 | 263 | 8.7 | 19.1 | 0.00 | 0.10 | 0.06 | 72 | 1015.4 |
| 20260505224423 | 62 | 252 | 11.3 | 19.1 | 0.00 | 0.10 | 0.06 | 72 | 1015.4 |
| 20260505223926 | 62 | 269 | 11.3 | 19.1 | 0.00 | 0.10 | 0.06 | 73 | 1015.4 |
| 20260505223433 | 61 | 282 | 11.3 | 18.2 | 0.00 | 0.10 | 0.06 | 73 | 1015.6 |
| 20260505222936 | 61 | 261 | 9.6 | 16.5 | 0.00 | 0.10 | 0.06 | 74 | 1015.4 |
| 20260505222441 | 61 | 287 | 7.8 | 17.4 | 0.00 | 0.10 | 0.06 | 74 | 1015.5 |
| 20260505221926 | 60 | 249 | 7.8 | 17.4 | 0.00 | 0.10 | 0.06 | 75 | 1015.6 |
| 20260505221433 | 60 | 250 | 9.6 | 15.6 | 0.00 | 0.10 | 0.06 | 75 | 1015.7 |
| 20260505220942 | 61 | 251 | 8.7 | 14.8 | 0.00 | 0.10 | 0.06 | 75 | 1015.8 |
| 20260505220447 | 61 | 247 | 10.4 | 14.8 | 0.00 | 0.10 | 0.06 | 74 | 1015.8 |
| 20260505215928 | 61 | 252 | 6.1 | 13.0 | 0.00 | 0.10 | 0.06 | 75 | 1015.9 |
| 20260505215432 | 60 | 259 | 8.7 | 13.0 | 0.00 | 0.10 | 0.06 | 76 | 1015.8 |
| 20260505214935 | 60 | 275 | 7.0 | 14.8 | 0.00 | 0.10 | 0.06 | 75 | 1015.9 |
| 20260505214423 | 61 | 263 | 7.8 | 16.5 | 0.00 | 0.10 | 0.06 | 75 | 1016.0 |
| 20260505213930 | 60 | 287 | 7.8 | 16.5 | 0.00 | 0.10 | 0.06 | 74 | 1016.1 |
| 20260505213436 | 60 | 295 | 7.0 | 13.9 | 0.00 | 0.10 | 0.06 | 74 | 1016.1 |
| 20260505212918 | 60 | 268 | 7.0 | 13.0 | 0.00 | 0.10 | 0.06 | 74 | 1016.1 |
| 20260505212421 | 60 | 252 | 8.7 | 14.8 | 0.00 | 0.10 | 0.06 | 74 | 1016.1 |
| 20260505211928 | 61 | 243 | 8.7 | 13.9 | 0.00 | 0.10 | 0.06 | 74 | 1016.1 |
| 20260505211435 | 61 | 263 | 8.7 | 14.8 | 0.00 | 0.10 | 0.06 | 73 | 1016.1 |
| 20260505210921 | 61 | 256 | 7.0 | 13.0 | 0.00 | 0.10 | 0.06 | 73 | 1016.1 |
| 20260505210428 | 61 | 282 | 8.7 | 12.2 | 0.00 | 0.10 | 0.06 | 73 | 1016.1 |
| 20260505205934 | 61 | 219 | 7.0 | 13.0 | 0.00 | 0.10 | 0.06 | 73 | 1016.1 |
| 20260505205441 | 61 | 272 | 6.1 | 16.5 | 0.00 | 0.10 | 0.06 | 73 | 1016.0 |
| 20260505204922 | 60 | 282 | 8.7 | 15.6 | 0.00 | 0.10 | 0.06 | 73 | 1016.1 |
| 20260505204426 | 60 | 347 | 7.0 | 16.5 | 0.00 | 0.10 | 0.06 | 74 | 1016.1 |
| 20260505203932 | 60 | 259 | 10.4 | 17.4 | 0.00 | 0.10 | 0.06 | 73 | 1016.1 |
| 20260505203446 | 61 | 288 | 7.8 | 13.0 | 0.00 | 0.10 | 0.06 | 72 | 1016.1 |
| 20260505203001 | 61 | 268 | 8.7 | 13.0 | 0.00 | 0.10 | 0.06 | 72 | 1016.1 |
| 20260505202458 | 61 | 284 | 7.8 | 16.5 | 0.00 | 0.10 | 0.06 | 73 | 1016.1 |
| 20260505201923 | 61 | 284 | 9.6 | 18.2 | 0.00 | 0.10 | 0.06 | 72 | 1016.1 |
| 20260505201421 | 61 | 275 | 10.4 | 14.8 | 0.00 | 0.10 | 0.06 | 72 | 1016.1 |